Temperature
26 27 27 27 27 27 27 26 26 26 26 25 25 24 23 22 22 22 21 20 20 19 18 17 17 16 16 16 17 17 17 16 16 16 16 16 15 15 15 15 15 15 14 14
27 27 27 27 27 26 26 26 26 25 25 25 25 24 24 23 22 21 21 20 19 19 18 17 17 16 16 16 16 16 16 16 16 16 16 15 15 15 15 14 14 14 14 14
27 27 27 26 26 26 26 26 26 25 25 25 25 24 24 23 22 21 20 20 19 19 18 17 17 16 16 16 16 16 16 16 16 15 15 15 14 14 14 14 14 14 14 14
27 27 26 26 26 26 26 26 26 25 25 26 25 25 24 23 22 21 20 19 19 18 18 17 17 16 16 16 16 16 16 15 15 15 14 14 14 14 14 14 14 14 14 13
26 26 26 26 26 26 26 26 26 26 26 26 25 25 25 24 22 22 20 19 18 18 17 17 16 16 16 16 16 15 15 15 15 15 14 14 14 14 14 13 13 13 13 13
27 26 26 26 26 25 25 26 25 25 26 25 25 25 24 23 22 22 21 19 18 17 17 16 16 16 15 15 15 15 15 15 15 14 14 14 14 14 13 13 13 13 13 13
26 26 26 26 26 26 26 25 25 25 25 25 25 24 23 22 21 21 20 19 18 17 16 16 16 15 15 15 15 14 14 14 14 14 14 14 14 13 13 13 13 13 13 13
26 26 26 25 25 25 25 25 24 24 24 25 24 24 23 21 20 20 19 18 17 17 16 16 15 15 15 14 14 14 14 14 14 14 14 14 13 13 13 13 13 13 13 13
25 25 25 25 25 25 25 25 25 24 24 24 24 23 22 21 21 20 19 18 17 16 16 15 15 15 14 14 14 14 13 13 13 13 13 13 13 13 13 13 13 13 13 13
24 24 25 25 25 25 25 25 24 24 23 23 23 23 23 21 21 20 19 18 17 16 15 15 15 14 14 14 13 13 13 13 13 13 12 13 13 12 12 13 13 13 12 12
24 23 24 25 24 24 24 24 24 24 23 22 22 22 21 21 20 20 19 18 17 16 15 15 14 14 14 13 13 13 13 13 12 12 12 12 12 12 12 12 12 12 12 12
23 23 24 24 24 24 24 24 23 22 22 22 22 22 21 20 20 19 18 17 16 16 15 15 14 14 14 13 13 12 12 12 12 12 12 12 12 12 12 12 12 12 12 12
22 22 23 23 23 23 23 23 23 23 23 22 22 21 20 20 19 18 18 17 16 15 15 14 14 14 13 13 12 12 12 12 12 12 12 12 11 11 11 11 12 12 12 12
21 22 22 22 22 23 23 23 23 23 22 22 22 21 21 20 19 18 17 16 16 15 14 14 14 13 13 13 12 12 12 12 12 11 11 11 11 11 11 11 11 11 12 11
21 22 22 22 23 23 22 22 22 22 22 21 21 20 20 19 19 18 17 16 16 15 14 14 14 13 13 12 12 12 12 11 11 11 11 11 11 11 11 11 11 11 11 11
21 21 22 22 22 22 21 22 22 21 21 21 20 20 20 18 18 17 16 16 15 15 14 14 13 13 13 12 12 12 11 11 11 11 11 11 11 11 11 11 11 11 11 11
21 20 21 22 22 22 21 21 21 20 21 20 20 19 19 18 17 17 16 16 15 14 14 14 13 13 12 12 12 11 11 11 11 11 11 11 11 11 11 11 11 11 11 11
20 20 21 21 21 20 20 20 20 20 20 20 19 19 18 18 17 16 16 15 15 14 14 13 13 12 12 12 11 11 11 11 11 11 11 11 11 11 11 11 11 11 10 11
19 20 21 21 21 21 20 20 20 19 19 19 19 18 18 17 17 17 15 14 14 14 13 13 12 12 12 12 11 11 11 11 11 11 11 11 11 11 11 11 11 10 10 10
19 20 20 20 20 20 20 20 19 19 19 18 18 17 17 17 18 17 15 14 14 13 13 12 12 12 12 12 11 11 11 11 11 11 11 11 11 11 11 11 11 10 10 10
20 20 20 20 20 20 20 19 19 19 18 17 17 16 16 16 16 15 14 13 13 13 12 12 12 12 12 11 11 11 11 11 11 11 11 11 11 11 11 11 10 10 10 10
20 20 19 20 19 19 18 19 18 17 16 16 16 16 15 15 15 14 14 13 13 13 12 12 12 11 11 11 11 11 11 11 11 11 11 11 10 10 11 10 10 10 10 10
19 19 20 19 19 18 18 17 17 16 16 16 15 15 15 14 14 14 13 13 13 12 12 12 12 11 11 11 11 11 11 11 11 11 11 10 10 10 10 10 10 10 10 11
19 18 18 18 19 18 17 17 16 16 16 15 15 14 14 14 14 14 13 13 12 12 12 12 11 11 11 11 11 11 11 11 11 10 10 10 10 10 10 10 10 11 11 11
19 18 18 18 18 18 17 16 16 15 15 15 14 14 14 14 14 13 13 13 12 12 12 11 11 11 11 11 11 11 11 11 11 11 11 11 11 11 10 10 10 10 10 10
18 18 18 18 18 17 17 16 15 15 15 15 14 14 14 14 13 13 13 12 12 12 11 11 11 11 11 11 11 11 11 11 11 11 11 11 11 11 11 11 11 11 10 10
Wind_Speed
4 5 2 1 3 4 4 4 2 0 1 3 4 3 3 3 3 2 2 2 2 2 3 3 3 2 3 3 2 0 0 1 1 1 2 2 3 3 2 3 3 4 4 5
5 2 1 2 2 4 4 4 2 1 2 3 4 3 4 3 2 1 1 1 1 2 3 3 3 2 2 2 2 1 1 1 2 2 3 2 3 3 3 3 3 4 4 5
3 3 1 2 3 4 4 4 3 2 2 4 5 5 5 4 2 1 1 0 1 2 2 2 3 2 2 2 2 2 2 2 3 2 2 2 2 3 3 3 3 3 4 5
1 1 1 3 2 5 4 3 4 4 6 4 6 5 5 4 2 1 0 1 1 2 2 3 3 2 2 1 1 2 2 2 3 3 3 3 3 3 3 3 3 3 4 5
0 1 2 3 4 5 4 4 5 6 8 6 5 6 2 3 1 1 0 1 1 2 3 4 3 3 2 2 2 2 2 2 3 3 2 3 4 3 2 3 3 4 4 4
0 0 2 4 3 2 3 4 5 7 8 7 3 5 2 1 2 1 1 1 2 3 4 4 4 4 3 3 2 2 2 2 3 3 2 3 4 4 4 4 4 4 3 4
2 3 2 2 2 1 4 6 4 5 5 3 0 4 2 5 4 2 2 2 2 2 3 4 4 4 4 4 4 3 3 3 4 4 3 3 3 4 4 4 4 4 4 4
3 1 2 3 4 5 4 6 5 5 5 4 2 2 3 5 4 3 3 2 2 2 3 4 4 4 4 4 5 5 4 4 4 4 3 3 3 4 3 4 4 4 4 4
3 2 3 2 3 5 4 4 5 7 7 7 3 1 2 4 3 3 3 2 2 2 3 3 4 4 4 4 4 5 5 5 5 5 4 3 3 4 4 4 4 4 4 4
4 4 1 1 2 1 3 4 4 4 4 5 4 3 2 3 4 4 3 3 3 3 2 3 3 4 4 4 4 5 5 6 6 5 5 4 4 3 4 4 4 4 5 5
4 4 2 1 3 5 3 2 4 4 5 5 5 3 5 5 5 4 4 4 3 3 3 3 3 4 4 4 4 5 6 6 6 6 5 5 5 5 5 4 4 4 5 5
3 3 3 2 2 2 3 4 4 4 4 5 5 2 6 5 4 4 4 4 4 3 3 3 3 3 4 5 5 5 6 6 6 6 6 5 5 5 5 5 5 4 4 5
2 3 4 3 3 1 2 3 4 5 4 5 6 2 5 5 5 4 4 4 3 3 4 4 4 4 4 5 5 5 5 6 6 6 6 5 5 5 5 5 6 5 5 4
3 2 4 5 4 4 5 4 5 5 5 5 6 6 5 6 6 5 4 4 4 4 4 4 5 5 5 5 5 5 5 6 6 6 6 6 6 5 5 6 6 5 5 4
2 2 2 3 4 4 5 5 5 5 6 6 7 7 8 7 6 5 4 4 5 5 5 5 6 5 5 5 5 5 6 6 6 6 6 6 6 5 6 6 6 5 4 4
1 2 3 4 2 3 4 4 4 4 5 5 6 5 5 5 5 5 5 5 5 5 6 6 6 6 6 6 6 6 6 6 6 6 6 6 6 5 5 6 6 5 4 4
2 2 3 3 2 5 3 3 3 3 3 5 5 5 4 5 6 6 6 6 6 5 6 7 6 6 6 6 6 6 6 6 6 6 6 6 5 5 5 5 6 5 4 4
3 4 3 4 4 3 3 3 2 3 3 4 4 5 5 6 6 5 5 6 6 6 7 7 7 6 6 6 6 6 6 6 5 5 6 6 5 5 5 5 5 5 5 4
3 3 3 3 4 3 2 0 3 5 4 4 5 5 6 6 6 4 5 7 7 7 7 6 6 6 6 6 6 6 6 6 6 5 5 6 5 5 5 5 5 5 5 5
2 4 4 4 5 3 2 2 3 5 4 4 5 6 7 7 8 6 7 8 8 7 6 6 6 6 6 6 6 6 6 6 6 6 5 5 4 4 5 5 5 5 5 5
3 3 5 5 5 2 3 2 3 4 5 6 6 7 7 8 8 8 8 7 7 6 6 6 5 5 5 5 5 6 6 6 6 6 5 4 4 4 4 5 5 5 4 5
3 3 3 4 4 1 3 1 3 5 5 6 7 7 8 8 8 8 7 6 6 6 6 6 5 5 5 5 6 6 6 6 6 5 4 4 4 4 4 5 5 5 5 4
3 3 3 3 2 2 1 2 3 4 6 6 7 8 8 8 8 7 6 6 6 6 5 5 6 6 6 5 6 6 6 6 5 4 3 3 4 4 5 5 5 4 4 5
3 3 4 5 4 4 4 4 5 6 7 7 7 7 7 7 7 7 6 5 5 5 5 5 6 6 6 6 6 5 5 5 4 4 4 3 4 4 4 5 5 5 5 4
5 4 5 6 6 6 5 5 6 7 7 7 7 7 7 7 7 7 6 5 5 5 5 6 6 7 7 6 6 5 4 4 4 4 4 4 4 4 4 4 4 5 4 4
6 6 6 5 5 6 6 6 7 7 7 7 7 7 7 7 7 7 6 5 5 5 5 6 7 7 7 6 6 5 4 4 4 5 5 4 4 4 4 4 3 1 2 1
Wind_Direction
211 234 246 323 304 312 296 277 256 231 158 230 211 179 147 146 152 142 138 126 97 65 50 49 51 54 58 50 44 61 229 182 226 228 234 234 243 250 252 254 247 251 255 258
220 226 344 309 286 274 267 261 228 167 183 239 203 193 161 150 160 153 157 142 82 47 43 36 30 44 47 43 30 3 304 248 246 255 258 252 263 260 257 269 250 244 256 260
271 27 37 259 253 260 256 277 288 255 219 209 209 209 173 150 143 161 199 172 33 18 14 19 18 17 20 29 9 354 335 281 271 282 258 257 250 257 253 268 258 258 263 261
275 26 287 260 280 288 273 305 283 252 243 229 235 252 161 158 156 194 255 349 4 11 12 10 15 14 4 10 24 9 344 309 288 275 257 254 256 264 275 278 284 275 263 264
55 13 303 318 339 310 318 314 270 256 257 261 234 263 175 152 216 245 288 338 2 6 10 9 12 11 8 19 23 15 2 310 289 281 267 263 272 284 282 276 275 272 274 271
3 146 339 344 331 318 306 264 236 239 247 254 247 267 269 97 327 359 53 53 43 23 21 19 22 28 25 25 11 4 14 331 314 302 291 282 287 290 285 277 276 274 275 275
185 134 93 353 307 228 289 290 264 246 245 265 93 273 1 48 38 16 48 72 75 59 43 32 28 30 23 15 5 354 357 344 334 326 310 300 293 284 273 279 280 283 285 284
288 160 61 12 333 315 310 298 299 294 293 302 271 275 63 62 65 53 55 69 75 62 47 39 31 30 21 10 2 352 346 338 336 333 318 313 302 294 286 283 290 288 290 293
330 355 73 23 343 315 308 307 314 287 279 281 272 215 138 96 69 49 47 53 50 44 40 33 27 25 20 11 5 354 347 341 334 333 329 322 314 317 312 298 285 291 298 296
324 298 348 44 245 60 335 317 293 291 295 290 276 291 350 41 23 21 18 25 33 28 28 29 21 17 16 10 4 356 354 348 341 340 335 333 326 321 316 306 305 307 305 301
316 289 286 270 334 347 333 318 309 304 303 298 304 354 40 24 16 4 7 12 19 11 3 12 9 2 3 5 3 358 357 349 341 338 337 337 333 335 327 320 311 306 301 298
339 297 296 313 49 345 336 342 319 309 310 294 296 352 65 35 28 16 10 9 17 9 3 6 1 354 353 357 356 356 351 343 339 338 335 336 334 332 325 323 318 310 306 302
318 277 276 216 165 133 342 339 312 308 298 297 296 341 67 26 16 11 9 8 6 2 356 354 353 346 345 346 343 345 341 338 334 334 334 332 328 331 327 325 321 317 314 309
289 280 295 309 329 331 325 322 315 298 301 303 309 320 343 357 1 2 2 358 349 348 348 342 341 338 335 332 332 333 332 331 329 328 326 329 329 328 324 322 319 317 318 316
297 277 289 301 306 304 312 317 317 308 310 304 313 322 341 349 352 352 349 348 340 339 338 334 331 331 325 324 323 325 325 323 321 321 322 325 328 330 324 321 320 319 321 322
314 280 280 269 266 290 306 307 309 310 314 306 308 319 355 354 351 347 347 343 337 338 336 331 327 324 319 317 316 318 318 319 317 319 319 321 322 322 323 325 325 325 328 328
263 264 279 277 290 279 286 329 312 310 321 315 314 336 347 340 338 336 337 333 331 334 328 326 324 319 318 314 313 312 313 312 311 311 311 312 310 314 321 325 334 334 328 325
261 267 266 283 283 274 70 55 345 316 321 333 333 345 343 336 327 323 337 333 329 329 323 323 322 319 314 311 309 307 304 305 307 305 308 315 314 315 320 326 334 331 324 321
242 259 271 274 279 275 152 245 316 304 305 2 345 339 333 330 310 309 346 336 324 322 320 317 313 311 310 310 310 307 303 306 307 309 311 315 319 318 321 326 327 326 322 320
195 238 259 270 283 291 41 48 323 283 266 31 343 330 326 316 309 333 344 328 323 322 318 316 315 312 313 318 317 311 309 310 311 311 308 308 311 315 319 321 320 320 317 319
232 238 249 262 266 279 54 16 290 286 351 353 327 324 320 318 319 321 321 320 322 320 316 313 312 313 317 318 314 310 316 315 315 315 315 312 312 313 314 318 316 313 311 317
271 265 259 266 265 288 73 329 318 342 340 322 316 316 316 313 309 310 314 316 316 316 319 319 317 318 316 313 309 307 310 311 311 312 314 317 317 315 317 313 312 312 308 305
248 287 294 283 305 31 305 303 316 315 311 312 310 313 311 306 305 308 310 311 310 311 318 320 318 315 312 311 309 307 312 312 306 305 306 310 315 318 316 312 311 305 302 306
239 259 257 262 265 286 284 291 295 300 306 308 304 304 303 303 306 307 309 307 307 307 312 317 314 312 316 318 313 306 307 308 303 301 300 297 300 307 314 314 314 310 314 315
269 246 253 258 277 287 282 293 297 299 303 302 301 300 301 301 303 305 306 305 306 309 312 313 310 310 313 313 308 305 309 303 301 300 298 298 300 309 308 307 312 310 327 329
244 249 260 278 292 290 295 304 300 295 292 295 297 297 298 300 301 300 300 302 302 303 306 308 307 309 311 310 310 309 308 300 298 294 292 297 303 302 299 302 300 287 275 278
Height
1506 1502 1500 1499 1498 1498 1498 1499 1500 1501 1501 1502 1503 1505 1508 1510 1512 1512 1513 1514 1515 1515 1516 1515 1515 1514 1514 1513 1512 1512 1512 1512 1512 1511 1511 1511 1511 1511 1511 1511 1510 1510 1509 1509
1502 1500 1499 1499 1500 1499 1498 1499 1499 1501 1501 1501 1503 1505 1506 1509 1510 1512 1513 1514 1514 1514 1514 1514 1514 1513 1512 1512 1511 1510 1510 1510 1510 1510 1509 1509 1509 1508 1508 1508 1507 1506 1506 1506
1500 1499 1500 1500 1500 1500 1499 1498 1498 1500 1500 1499 1502 1504 1504 1507 1510 1512 1513 1513 1513 1514 1514 1513 1513 1512 1511 1510 1510 1509 1508 1508 1508 1507 1507 1506 1506 1506 1507 1506 1504 1503 1503 1503
1499 1500 1501 1500 1499 1499 1499 1495 1497 1498 1499 1496 1498 1502 1500 1502 1507 1510 1511 1512 1513 1513 1513 1513 1512 1511 1510 1510 1509 1508 1507 1506 1506 1505 1505 1504 1504 1504 1504 1503 1502 1502 1501 1500
1500 1500 1500 1500 1500 1499 1497 1496 1496 1495 1495 1494 1495 1499 1496 1499 1504 1507 1510 1512 1512 1513 1512 1512 1511 1510 1510 1509 1508 1507 1506 1505 1504 1503 1503 1503 1503 1502 1502 1501 1500 1500 1499 1498
1499 1501 1501 1501 1500 1500 1498 1496 1495 1493 1491 1501 1495 1500 1500 1500 1504 1505 1508 1511 1512 1512 1512 1512 1511 1510 1509 1509 1508 1507 1505 1504 1503 1502 1502 1501 1501 1500 1499 1499 1498 1498 1497 1496
1499 1499 1500 1502 1500 1499 1497 1498 1502 1501 1500 1499 1494 1500 1504 1503 1506 1507 1509 1511 1512 1513 1512 1511 1511 1510 1509 1508 1507 1506 1505 1503 1502 1501 1500 1500 1499 1498 1497 1497 1496 1495 1494 1493
1503 1503 1501 1501 1502 1501 1498 1499 1509 1513 1507 1498 1496 1501 1503 1506 1509 1510 1511 1511 1512 1513 1512 1512 1511 1510 1509 1508 1507 1505 1504 1503 1502 1500 1499 1498 1497 1497 1496 1495 1494 1493 1492 1490
1505 1505 1502 1503 1502 1500 1498 1497 1497 1501 1500 1504 1498 1501 1502 1506 1508 1510 1511 1511 1512 1513 1513 1512 1512 1510 1510 1508 1507 1505 1503 1502 1501 1499 1498 1496 1495 1494 1493 1492 1491 1491 1489 1488
1507 1510 1502 1502 1501 1501 1499 1498 1499 1503 1512 1512 1503 1501 1503 1505 1508 1509 1511 1511 1512 1513 1513 1512 1512 1511 1510 1508 1507 1505 1503 1501 1500 1498 1496 1495 1494 1493 1491 1490 1489 1487 1486 1485
1508 1511 1505 1502 1503 1503 1502 1501 1501 1500 1502 1511 1512 1509 1505 1508 1510 1510 1512 1512 1513 1513 1513 1512 1512 1511 1510 1508 1506 1504 1503 1501 1499 1497 1496 1494 1492 1491 1490 1488 1486 1485 1483 1482
1512 1509 1508 1504 1503 1504 1502 1503 1503 1510 1509 1506 1508 1512 1508 1509 1511 1512 1513 1513 1513 1513 1513 1512 1511 1511 1509 1508 1506 1504 1502 1500 1498 1497 1495 1493 1491 1490 1488 1486 1484 1483 1481 1479
1514 1514 1514 1508 1508 1506 1504 1504 1503 1502 1505 1507 1510 1513 1509 1510 1511 1512 1513 1514 1514 1513 1513 1512 1511 1510 1509 1507 1506 1504 1502 1500 1498 1496 1494 1492 1490 1488 1486 1484 1482 1481 1479 1477
1516 1513 1514 1517 1512 1507 1507 1505 1503 1504 1506 1508 1508 1508 1507 1509 1511 1513 1513 1514 1514 1513 1512 1511 1510 1509 1508 1506 1505 1503 1501 1499 1497 1495 1493 1491 1489 1487 1485 1483 1481 1479 1477 1476
1516 1513 1510 1509 1507 1507 1507 1507 1506 1507 1507 1510 1509 1508 1509 1511 1512 1514 1514 1514 1513 1513 1512 1510 1509 1508 1507 1505 1504 1502 1500 1497 1495 1493 1492 1490 1488 1485 1483 1481 1480 1478 1476 1474
1517 1516 1512 1511 1507 1507 1509 1508 1507 1508 1508 1508 1509 1510 1511 1513 1514 1514 1514 1514 1513 1512 1511 1510 1508 1507 1505 1504 1502 1500 1498 1496 1494 1492 1491 1489 1487 1485 1482 1480 1478 1476 1474 1473
1515 1516 1515 1511 1506 1508 1511 1509 1509 1510 1509 1510 1511 1512 1513 1513 1514 1514 1514 1513 1512 1512 1510 1509 1507 1506 1504 1502 1500 1498 1497 1495 1493 1491 1489 1488 1486 1484 1482 1480 1477 1475 1473 1471
1518 1516 1513 1510 1511 1519 1513 1510 1510 1511 1511 1511 1511 1512 1513 1514 1514 1514 1513 1512 1512 1511 1509 1507 1506 1504 1502 1501 1499 1497 1495 1493 1491 1490 1488 1487 1485 1483 1481 1479 1476 1474 1472 1470
1518 1516 1513 1511 1510 1510 1510 1511 1512 1512 1512 1513 1513 1514 1514 1513 1512 1511 1511 1511 1511 1509 1508 1506 1504 1502 1500 1499 1497 1495 1493 1492 1490 1488 1486 1485 1483 1481 1479 1478 1475 1473 1471 1469
1517 1516 1514 1512 1516 1517 1511 1511 1512 1513 1511 1514 1515 1514 1514 1512 1508 1508 1510 1510 1509 1507 1505 1504 1502 1500 1498 1497 1495 1493 1491 1490 1488 1486 1484 1482 1481 1480 1478 1476 1474 1472 1470 1469
1515 1514 1514 1513 1514 1509 1510 1512 1513 1515 1515 1516 1515 1514 1514 1512 1512 1511 1509 1508 1507 1505 1503 1502 1500 1498 1496 1495 1493 1491 1490 1488 1486 1484 1482 1481 1479 1478 1477 1475 1473 1471 1469 1468
1513 1512 1512 1512 1514 1515 1513 1512 1513 1516 1516 1515 1515 1514 1513 1512 1510 1509 1508 1506 1505 1503 1501 1500 1498 1496 1495 1493 1491 1489 1488 1486 1484 1483 1481 1479 1478 1477 1476 1474 1472 1470 1468 1467
1513 1512 1509 1511 1513 1513 1514 1514 1516 1516 1515 1514 1513 1513 1512 1510 1508 1507 1506 1504 1503 1501 1500 1498 1496 1494 1492 1491 1489 1487 1486 1484 1483 1481 1480 1478 1477 1476 1474 1473 1471 1469 1467 1465
1511 1514 1513 1511 1509 1512 1513 1514 1515 1515 1514 1513 1512 1511 1510 1508 1506 1505 1504 1502 1500 1499 1498 1496 1494 1492 1490 1489 1487 1485 1484 1482 1481 1480 1478 1477 1476 1474 1473 1471 1470 1468 1466 1464
1511 1512 1510 1510 1510 1511 1511 1512 1512 1512 1512 1511 1510 1509 1507 1506 1504 1503 1501 1500 1498 1497 1495 1494 1492 1490 1488 1486 1485 1484 1482 1481 1480 1478 1477 1476 1475 1473 1471 1469 1467 1466 1464 1462
1510 1510 1509 1507 1509 1510 1510 1510 1510 1509 1509 1508 1507 1506 1505 1504 1502 1501 1499 1498 1496 1495 1493 1492 1490 1488 1486 1485 1483 1482 1481 1479 1478 1477 1476 1475 1473 1471 1470 1468 1466 1464 1462 1460